Location: Hastringsfeld
(50.9620°N, 10.4787°E)
Time: 09:37:03
(UTC+00:00)

Cosmos 2221 - Pass Details

Date: 26 September 2023
Orbit: 584 x 608 km, 82.5° (Epoch: 09 December)

Event Time Altitude Azimuth Distance (km) Brightness Sun altitude
Exits shadow 01:06:48 - 100° (E) 2,438 5.9 -34.3°
Enters shadow 02:16:02 -53° 185° (S) 10,843 8.9 -26.6°
Maximum altitude 02:45:22 54° 95° (E) 729 3.1 -22.7°
